Simultaneous Nadir Overpasses (SNOs) Predictions

Prediction of SNOs between AQUA and GOES-15 Satellite Orbit:

Table of predicted SNOs for the next 14.0 days since TLE Epoch: 5/2/2020
Index Date Time (AQUA) AQUA Lat,Lon GOES-15 Lat,Lon Distance(km) Time Diff (sec)
1 05/02/2020 10:07:22 -0.16,-127.93 -0.12,-128.25 35.17 80
2 05/04/2020 09:55:10 -0.80,-124.98 -0.12,-128.27 373.84 80
3 05/04/2020 22:16:35 -0.28,-130.17 0.10,-128.26 217.13 80
4 05/06/2020 22:04:22 0.31,-127.21 0.11,-128.28 121.25 80
5 05/07/2020 10:25:37 0.78,-132.36 -0.08,-128.30 461.84 80
6 05/08/2020 21:52:10 0.95,-124.25 0.11,-128.29 458.97 80
7 05/09/2020 10:13:25 0.13,-129.41 -0.09,-128.31 124.35 80
8 05/11/2020 10:01:12 -0.46,-126.44 -0.09,-128.31 212.69 80
9 05/11/2020 22:22:36 -0.67,-131.63 0.07,-128.29 379.45 80
10 05/13/2020 22:10:24 -0.01,-128.67 0.07,-128.30 42.44 80
11 05/15/2020 21:58:12 0.65,-125.72 0.07,-128.30 294.47 80




NCC Satellite Simultaneous Nadir Overpasses (SNOs) Prediction Service
